User: anonymous   Login
Location: Unspecified
(43.0000°N, 0.0000°E)
Time: 15:03:51
(UTC+00:00)
Language:

XW-2C - Orbit

View from above orbital plane
View from above orbital plane
View from above satellite
View from above satellite

Ground track
Ground track

The orbit data is extracted from the following two-line orbital elements,

1 40906U 15049H   19202.42172397  .00000418  00000-0  25383-4 0  9995
2 40906  97.4669 203.9563 0016475  86.3533  50.2773 15.15694785211954
Epoch (UTC): 21 July 2019 10:07:16
Eccentricity: 0.0016475
inclination: 97.4669°
perigee height: 507 km
apogee height: 530 km
right ascension of ascending node: 203.9563°
argument of perigee: 86.3533°
revolutions per day: 15.15694785
mean anomaly at epoch: 50.2773°
orbit number at epoch: 21195

The dashed part of the orbit path shows where the satellite is in the earth's shadow,  

DLR